Time,TemperatureF,DewpointF,PressureIn,WindDirection,WindDirectionDegrees,WindSpeedMPH,WindSpeedGustMPH,Humidity,HourlyPrecipIn,Conditions,Clouds,dailyrainin,SoftwareType,DateUTC
2013-10-09 00:14:00,41.0,41.0,30.32,SSW,200,0.0,-999.0,99,-99.99,,,-99.99,,2013-10-09 04:14:00,
2013-10-09 00:24:00,41.0,41.0,30.32,SSW,200,0.0,-999.0,99,-99.99,,,-99.99,,2013-10-09 04:24:00,
2013-10-09 00:44:00,40.0,40.0,30.32,SSW,200,0.0,-999.0,99,-99.99,,,-99.99,,2013-10-09 04:44:00,
2013-10-09 00:54:00,40.0,40.0,30.32,SSW,200,1.0,-999.0,100,-99.99,,,-99.99,,2013-10-09 04:54:00,
2013-10-09 01:13:00,40.0,40.0,30.31,SSW,200,1.0,-999.0,100,-99.99,,,-99.99,,2013-10-09 05:13:00,
2013-10-09 01:22:00,40.0,40.0,30.32,SSW,200,1.0,-999.0,100,-99.99,,,-99.99,,2013-10-09 05:22:00,
2013-10-09 01:42:00,40.0,40.0,30.32,SSW,200,1.0,-999.0,100,-99.99,,,-99.99,,2013-10-09 05:42:00,
2013-10-09 01:52:00,40.0,40.0,30.31,SSW,200,0.0,-999.0,100,-99.99,,,-99.99,,2013-10-09 05:52:00,
2013-10-09 02:12:00,39.0,39.0,30.31,SSW,200,1.0,-999.0,100,-99.99,,,-99.99,,2013-10-09 06:12:00,
2013-10-09 02:22:00,39.0,39.0,30.32,SSW,200,0.0,-999.0,100,-99.99,,,-99.99,,2013-10-09 06:22:00,
2013-10-09 02:42:00,39.0,39.0,30.32,SSW,200,0.0,-999.0,100,-99.99,,,-99.99,,2013-10-09 06:42:00,
2013-10-09 02:52:00,39.0,39.0,30.32,SSW,200,1.0,-999.0,100,-99.99,,,-99.99,,2013-10-09 06:52:00,
2013-10-09 03:12:00,39.0,39.0,30.31,SSW,200,0.0,-999.0,100,-99.99,,,-99.99,,2013-10-09 07:12:00,
2013-10-09 03:22:00,39.0,39.0,30.31,SSW,200,0.0,-999.0,100,-99.99,,,-99.99,,2013-10-09 07:22:00,
2013-10-09 03:42:00,38.0,38.0,30.31,SSW,200,0.0,-999.0,100,-99.99,,,-99.99,,2013-10-09 07:42:00,
2013-10-09 03:52:00,38.0,38.0,30.31,SSW,200,0.0,-999.0,100,-99.99,,,-99.99,,2013-10-09 07:52:00,
2013-10-09 04:12:00,38.0,38.0,30.31,SSW,200,1.0,-999.0,100,-99.99,,,-99.99,,2013-10-09 08:12:00,
2013-10-09 04:23:00,38.0,38.0,30.32,SSW,200,0.0,-999.0,100,-99.99,,,-99.99,,2013-10-09 08:23:00,
2013-10-09 04:42:00,38.0,38.0,30.31,SSW,200,0.0,-999.0,100,-99.99,,,-99.99,,2013-10-09 08:42:00,
2013-10-09 04:53:00,38.0,38.0,30.32,SSW,200,0.0,-999.0,100,-99.99,,,-99.99,,2013-10-09 08:53:00,
2013-10-09 05:11:00,38.0,38.0,30.32,SSW,200,0.0,-999.0,100,-99.99,,,-99.99,,2013-10-09 09:11:00,
2013-10-09 05:22:00,38.0,38.0,30.33,SSW,200,0.0,-999.0,100,-99.99,,,-99.99,,2013-10-09 09:22:00,
2013-10-09 05:43:00,38.0,38.0,30.34,SSW,200,0.0,-999.0,100,-99.99,,,-99.99,,2013-10-09 09:43:00,
2013-10-09 05:53:00,37.0,37.0,30.34,SSW,200,0.0,-999.0,100,-99.99,,,-99.99,,2013-10-09 09:53:00,
2013-10-09 06:13:00,37.0,37.0,30.34,SSW,200,0.0,-999.0,100,-99.99,,,-99.99,,2013-10-09 10:13:00,
2013-10-09 06:23:00,37.0,37.0,30.34,SSW,200,0.0,-999.0,100,-99.99,,,-99.99,,2013-10-09 10:23:00,
2013-10-09 06:43:00,37.0,37.0,30.34,SSW,200,0.0,-999.0,100,-99.99,,,-99.99,,2013-10-09 10:43:00,
2013-10-09 06:53:00,37.0,37.0,30.35,SSW,200,0.0,-999.0,100,-99.99,,,-99.99,,2013-10-09 10:53:00,
2013-10-09 07:12:00,37.0,37.0,30.35,SSW,200,0.0,-999.0,100,-99.99,,,-99.99,,2013-10-09 11:12:00,
2013-10-09 07:22:00,37.0,37.0,30.35,SSW,200,0.0,-999.0,100,-99.99,,,-99.99,,2013-10-09 11:22:00,
2013-10-09 07:42:00,37.0,37.0,30.35,SSW,200,0.0,-999.0,100,-99.99,,,-99.99,,2013-10-09 11:42:00,
2013-10-09 07:52:00,37.0,37.0,30.36,SSW,200,0.0,-999.0,100,-99.99,,,-99.99,,2013-10-09 11:52:00,
2013-10-09 08:12:00,37.0,37.0,30.36,SSW,200,0.0,-999.0,100,-99.99,,,-99.99,,2013-10-09 12:12:00,
2013-10-09 08:22:00,38.0,38.0,30.36,SSW,200,0.0,-999.0,100,-99.99,,,-99.99,,2013-10-09 12:22:00,
2013-10-09 08:42:00,39.0,39.0,30.36,South,182,2.0,-999.0,100,-99.99,,,-99.99,,2013-10-09 12:42:00,
2013-10-09 08:52:00,41.0,41.0,30.37,South,182,2.0,-999.0,100,-99.99,,,-99.99,,2013-10-09 12:52:00,
2013-10-09 09:12:00,42.0,42.0,30.37,South,181,1.0,-999.0,100,-99.99,,,-99.99,,2013-10-09 13:12:00,
2013-10-09 09:22:00,43.0,43.0,30.38,South,182,0.0,-999.0,100,-99.99,,,-99.99,,2013-10-09 13:22:00,
2013-10-09 09:42:00,44.0,44.0,30.38,South,182,0.0,-999.0,100,-99.99,,,-99.99,,2013-10-09 13:42:00,
2013-10-09 09:52:00,47.0,46.0,30.38,SSE,155,4.0,-999.0,98,-99.99,,,-99.99,,2013-10-09 13:52:00,
2013-10-09 10:11:00,50.0,42.0,30.37,SE,143,2.0,-999.0,74,-99.99,,,-99.99,,2013-10-09 14:11:00,
2013-10-09 10:22:00,52.0,40.0,30.38,SSE,165,3.0,-999.0,64,-99.99,,,-99.99,,2013-10-09 14:22:00,
2013-10-09 10:42:00,53.0,39.0,30.38,SSE,151,5.0,-999.0,59,-99.99,,,-99.99,,2013-10-09 14:42:00,
2013-10-09 10:52:00,54.0,39.0,30.39,SSE,162,5.0,-999.0,57,-99.99,,,-99.99,,2013-10-09 14:52:00,
2013-10-09 11:11:00,55.0,40.0,30.39,South,171,5.0,-999.0,56,-99.99,,,-99.99,,2013-10-09 15:11:00,
2013-10-09 11:22:00,56.0,39.0,30.39,SE,134,4.0,-999.0,53,-99.99,,,-99.99,,2013-10-09 15:22:00,
2013-10-09 11:53:00,57.0,40.0,30.37,SSE,165,6.0,-999.0,52,-99.99,,,-99.99,,2013-10-09 15:53:00,
2013-10-09 12:13:00,57.0,41.0,30.37,ESE,117,3.0,-999.0,54,-99.99,,,-99.99,,2013-10-09 16:13:00,
2013-10-09 12:24:00,57.0,41.0,30.36,SE,131,4.0,-999.0,55,-99.99,,,-99.99,,2013-10-09 16:24:00,
2013-10-09 12:42:00,57.0,41.0,30.36,ESE,116,4.0,-999.0,54,-99.99,,,-99.99,,2013-10-09 16:42:00,
2013-10-09 12:52:00,57.0,41.0,30.36,SE,140,4.0,-999.0,56,-99.99,,,-99.99,,2013-10-09 16:52:00,
2013-10-09 13:12:00,57.0,41.0,30.36,ESE,119,5.0,-999.0,54,-99.99,,,-99.99,,2013-10-09 17:12:00,
2013-10-09 13:22:00,58.0,41.0,30.35,SSE,157,4.0,-999.0,53,-99.99,,,-99.99,,2013-10-09 17:22:00,
2013-10-09 13:42:00,58.0,40.0,30.34,ENE,62,5.0,-999.0,51,-99.99,,,-99.99,,2013-10-09 17:42:00,
2013-10-09 13:52:00,59.0,42.0,30.34,NE,37,4.0,-999.0,53,-99.99,,,-99.99,,2013-10-09 17:52:00,
2013-10-09 14:02:00,59.0,42.0,30.34,NE,37,4.0,-999.0,53,-99.99,,,-99.99,,2013-10-09 18:02:00,
2013-10-09 14:12:00,59.0,42.0,30.34,NE,37,4.0,-999.0,53,-99.99,,,-99.99,,2013-10-09 18:12:00,
2013-10-09 14:22:00,59.0,40.0,30.32,SE,131,5.0,-999.0,49,-99.99,,,-99.99,,2013-10-09 18:22:00,
2013-10-09 14:42:00,60.0,41.0,30.32,SE,126,4.0,-999.0,50,-99.99,,,-99.99,,2013-10-09 18:42:00,
2013-10-09 14:52:00,61.0,42.0,30.32,East,95,4.0,-999.0,49,-99.99,,,-99.99,,2013-10-09 18:52:00,
2013-10-09 15:12:00,61.0,41.0,30.31,ENE,75,3.0,-999.0,48,-99.99,,,-99.99,,2013-10-09 19:12:00,
2013-10-09 15:22:00,61.0,41.0,30.31,ESE,123,3.0,-999.0,47,-99.99,,,-99.99,,2013-10-09 19:22:00,
2013-10-09 15:32:00,61.0,41.0,30.31,ESE,123,3.0,-999.0,47,-99.99,,,-99.99,,2013-10-09 19:32:00,
2013-10-09 15:42:00,61.0,41.0,30.31,ESE,123,3.0,-999.0,47,-99.99,,,-99.99,,2013-10-09 19:42:00,
2013-10-09 15:52:00,61.0,40.0,30.29,NE,41,4.0,-999.0,46,-99.99,,,-99.99,,2013-10-09 19:52:00,
2013-10-09 16:11:00,61.0,40.0,30.29,ENE,69,2.0,-999.0,46,-99.99,,,-99.99,,2013-10-09 20:11:00,
2013-10-09 16:22:00,61.0,39.0,30.29,ENE,72,3.0,-999.0,44,-99.99,,,-99.99,,2013-10-09 20:22:00,
2013-10-09 16:43:00,61.0,39.0,30.29,East,92,4.0,-999.0,44,-99.99,,,-99.99,,2013-10-09 20:43:00,
2013-10-09 16:52:00,61.0,39.0,30.28,ESE,107,4.0,-999.0,44,-99.99,,,-99.99,,2013-10-09 20:52:00,
2013-10-09 17:12:00,60.0,39.0,30.28,NE,55,2.0,-999.0,46,-99.99,,,-99.99,,2013-10-09 21:12:00,
2013-10-09 17:23:00,60.0,40.0,30.27,SE,126,3.0,-999.0,47,-99.99,,,-99.99,,2013-10-09 21:23:00,
2013-10-09 17:44:00,60.0,40.0,30.27,ENE,78,2.0,-999.0,47,-99.99,,,-99.99,,2013-10-09 21:44:00,
2013-10-09 17:53:00,59.0,39.0,30.28,SE,141,2.0,-999.0,48,-99.99,,,-99.99,,2013-10-09 21:53:00,
2013-10-09 18:13:00,59.0,40.0,30.27,ESE,119,1.0,-999.0,49,-99.99,,,-99.99,,2013-10-09 22:13:00,
2013-10-09 18:24:00,58.0,40.0,30.27,SE,127,2.0,-999.0,51,-99.99,,,-99.99,,2013-10-09 22:24:00,
2013-10-09 18:43:00,57.0,41.0,30.27,SE,127,1.0,-999.0,54,-99.99,,,-99.99,,2013-10-09 22:43:00,
2013-10-09 18:53:00,56.0,41.0,30.28,SE,127,0.0,-999.0,57,-99.99,,,-99.99,,2013-10-09 22:53:00,
2013-10-09 19:12:00,55.0,43.0,30.28,SE,127,0.0,-999.0,63,-99.99,,,-99.99,,2013-10-09 23:12:00,
2013-10-09 19:22:00,54.0,43.0,30.28,SE,127,0.0,-999.0,66,-99.99,,,-99.99,,2013-10-09 23:22:00,
2013-10-09 19:43:00,52.0,41.0,30.28,SE,127,1.0,-999.0,66,-99.99,,,-99.99,,2013-10-09 23:43:00,
2013-10-09 19:53:00,52.0,39.0,30.27,SE,127,0.0,-999.0,62,-99.99,,,-99.99,,2013-10-09 23:53:00,
2013-10-09 20:12:00,53.0,40.0,30.28,SE,127,0.0,-999.0,61,-99.99,,,-99.99,,2013-10-10 00:12:00,
2013-10-09 20:22:00,52.0,40.0,30.28,SE,128,0.0,-999.0,63,-99.99,,,-99.99,,2013-10-10 00:22:00,
2013-10-09 20:42:00,51.0,39.0,30.28,SE,128,0.0,-999.0,64,-99.99,,,-99.99,,2013-10-10 00:42:00,
2013-10-09 20:52:00,51.0,40.0,30.27,SE,128,0.0,-999.0,65,-99.99,,,-99.99,,2013-10-10 00:52:00,
2013-10-09 21:11:00,51.0,39.0,30.27,SE,127,0.0,-999.0,63,-99.99,,,-99.99,,2013-10-10 01:11:00,
2013-10-09 21:22:00,51.0,38.0,30.28,SE,128,0.0,-999.0,62,-99.99,,,-99.99,,2013-10-10 01:22:00,
2013-10-09 21:42:00,51.0,38.0,30.28,SE,130,1.0,-999.0,60,-99.99,,,-99.99,,2013-10-10 01:42:00,
2013-10-09 21:52:00,52.0,38.0,30.27,SE,130,1.0,-999.0,58,-99.99,,,-99.99,,2013-10-10 01:52:00,
2013-10-09 22:12:00,51.0,38.0,30.27,SE,130,0.0,-999.0,61,-99.99,,,-99.99,,2013-10-10 02:12:00,
2013-10-09 22:22:00,51.0,38.0,30.27,SE,128,1.0,-999.0,60,-99.99,,,-99.99,,2013-10-10 02:22:00,
2013-10-09 23:12:00,49.0,39.0,30.27,SE,128,0.0,-999.0,67,-99.99,,,-99.99,,2013-10-10 03:12:00,
2013-10-09 23:22:00,49.0,39.0,30.27,SE,130,0.0,-999.0,67,-99.99,,,-99.99,,2013-10-10 03:22:00,
2013-10-09 23:44:00,49.0,39.0,30.27,SE,130,0.0,-999.0,68,-99.99,,,-99.99,,2013-10-10 03:44:00,
2013-10-09 23:55:00,48.0,38.0,30.26,SE,130,0.0,-999.0,67,-99.99,,,-99.99,,2013-10-10 03:55:00,